Time,TemperatureF,DewpointF,PressureIn,WindDirection,WindDirectionDegrees,WindSpeedMPH,WindSpeedGustMPH,Humidity,HourlyPrecipIn,Conditions,Clouds,dailyrainin,SoftwareType,DateUTC
2013-08-15 00:03:00,55.6,28.4,30.02,North,0,0.0,0.0,35,0.00,,SKC,0.00,VWS V13.00,2013-08-15 06:03:00,
2013-08-15 00:08:00,55.6,28.4,30.02,North,0,0.0,0.0,35,0.00,,SKC,0.00,VWS V13.00,2013-08-15 06:08:00,
2013-08-15 00:13:00,55.4,28.2,30.02,North,0,0.0,0.0,35,0.00,,SKC,0.00,VWS V13.00,2013-08-15 06:13:00,
2013-08-15 00:18:00,55.4,28.2,30.02,North,0,0.0,0.0,35,0.00,,SKC,0.00,VWS V13.00,2013-08-15 06:18:00,
2013-08-15 00:23:00,55.4,28.9,30.02,North,0,0.0,0.0,36,0.00,,SKC,0.00,VWS V13.00,2013-08-15 06:23:00,
2013-08-15 00:28:00,55.2,28.8,30.02,North,0,0.0,0.0,36,0.00,,SKC,0.00,VWS V13.00,2013-08-15 06:28:00,
2013-08-15 00:33:00,55.0,28.6,30.02,North,0,0.0,0.0,36,0.00,,SKC,0.00,VWS V13.00,2013-08-15 06:33:00,
2013-08-15 00:39:00,55.0,28.6,30.02,North,0,0.0,0.0,36,0.00,,SKC,0.00,VWS V13.00,2013-08-15 06:39:00,
2013-08-15 00:44:00,54.9,28.4,30.02,North,0,0.0,0.0,36,0.00,,SKC,0.00,VWS V13.00,2013-08-15 06:44:00,
2013-08-15 00:49:00,54.9,28.4,30.02,North,0,0.0,0.0,36,0.00,,SKC,0.00,VWS V13.00,2013-08-15 06:49:00,
2013-08-15 00:54:00,54.9,28.4,30.02,North,0,0.0,0.0,36,0.00,,SKC,0.00,VWS V13.00,2013-08-15 06:54:00,
2013-08-15 00:59:00,54.7,28.3,30.02,North,0,0.0,0.0,36,0.00,,SKC,0.00,VWS V13.00,2013-08-15 06:59:00,
2013-08-15 01:04:00,54.5,28.1,30.02,North,0,0.0,0.0,36,0.00,,SKC,0.00,VWS V13.00,2013-08-15 07:04:00,
2013-08-15 01:09:00,54.5,28.8,30.02,North,0,0.0,0.0,37,0.00,,SKC,0.00,VWS V13.00,2013-08-15 07:09:00,
2013-08-15 01:14:00,54.3,28.6,30.02,North,0,0.0,0.0,37,0.00,,SKC,0.00,VWS V13.00,2013-08-15 07:14:00,
2013-08-15 01:19:00,54.1,28.5,30.02,North,0,0.0,0.0,37,0.00,,SKC,0.00,VWS V13.00,2013-08-15 07:19:00,
2013-08-15 01:24:00,54.0,28.3,30.02,North,0,0.0,0.0,37,0.00,,SKC,0.00,VWS V13.00,2013-08-15 07:24:00,
2013-08-15 01:29:00,54.0,28.3,30.02,North,0,0.0,0.0,37,0.00,,SKC,0.00,VWS V13.00,2013-08-15 07:29:00,
2013-08-15 01:34:00,53.8,28.1,30.02,North,0,0.0,0.0,37,0.00,,SKC,0.00,VWS V13.00,2013-08-15 07:34:00,
2013-08-15 01:39:00,53.8,28.1,30.02,North,0,0.0,0.0,37,0.00,,SKC,0.00,VWS V13.00,2013-08-15 07:39:00,
2013-08-15 01:44:00,53.8,28.1,30.02,North,0,0.0,0.0,37,0.00,,SKC,0.00,VWS V13.00,2013-08-15 07:44:00,
2013-08-15 01:49:00,53.8,28.8,30.02,North,0,0.0,0.0,38,0.00,,SKC,0.00,VWS V13.00,2013-08-15 07:49:00,
2013-08-15 01:54:00,53.8,28.8,30.02,North,0,0.0,0.0,38,0.00,,SKC,0.00,VWS V13.00,2013-08-15 07:54:00,
2013-08-15 01:59:00,53.6,29.3,30.02,North,0,0.0,0.0,39,0.00,,SKC,0.00,VWS V13.00,2013-08-15 07:59:00,
2013-08-15 02:04:00,53.4,29.1,30.02,North,0,0.0,0.0,39,0.00,,SKC,0.00,VWS V13.00,2013-08-15 08:04:00,
2013-08-15 02:09:00,53.2,29.6,30.02,North,0,0.0,0.0,40,0.00,,SKC,0.00,VWS V13.00,2013-08-15 08:09:00,
2013-08-15 02:14:00,53.2,29.6,30.02,North,0,0.0,0.0,40,0.00,,SKC,0.00,VWS V13.00,2013-08-15 08:14:00,
2013-08-15 02:19:00,53.2,29.6,30.02,North,0,0.0,0.0,40,0.00,,SKC,0.00,VWS V13.00,2013-08-15 08:19:00,
2013-08-15 02:24:00,53.1,29.4,30.02,North,0,0.0,0.0,40,0.00,,SKC,0.00,VWS V13.00,2013-08-15 08:24:00,
2013-08-15 02:29:00,53.1,29.4,30.02,North,0,0.0,0.0,40,0.00,,SKC,0.00,VWS V13.00,2013-08-15 08:29:00,
2013-08-15 02:34:00,52.9,29.2,30.02,North,0,0.0,0.0,40,0.00,,SKC,0.00,VWS V13.00,2013-08-15 08:34:00,
2013-08-15 02:39:00,52.7,29.1,30.02,North,0,0.0,0.0,40,0.00,,SKC,0.00,VWS V13.00,2013-08-15 08:39:00,
2013-08-15 02:45:00,52.5,29.5,30.02,North,0,0.0,0.0,41,0.00,,SKC,0.00,VWS V13.00,2013-08-15 08:45:00,
2013-08-15 02:50:00,52.5,29.5,30.02,North,0,0.0,0.0,41,0.00,,SKC,0.00,VWS V13.00,2013-08-15 08:50:00,
2013-08-15 02:55:00,52.3,29.4,30.02,North,0,0.0,0.0,41,0.00,,SKC,0.00,VWS V13.00,2013-08-15 08:55:00,
2013-08-15 03:00:00,52.3,29.4,30.02,North,0,0.0,0.0,41,0.00,,SKC,0.00,VWS V13.00,2013-08-15 09:00:00,
2013-08-15 03:05:00,52.2,29.2,30.02,North,0,0.0,0.0,41,0.00,,SKC,0.00,VWS V13.00,2013-08-15 09:05:00,
2013-08-15 03:10:00,52.2,29.8,30.02,North,0,0.0,0.0,42,0.00,,SKC,0.00,VWS V13.00,2013-08-15 09:10:00,
2013-08-15 03:15:00,52.0,29.0,30.02,North,0,0.0,0.0,41,0.00,,SKC,0.00,VWS V13.00,2013-08-15 09:15:00,
2013-08-15 03:20:00,52.0,29.6,30.02,North,0,0.0,0.0,42,0.00,,SKC,0.00,VWS V13.00,2013-08-15 09:20:00,
2013-08-15 03:25:00,52.0,29.6,30.02,North,0,0.0,0.0,42,0.00,,SKC,0.00,VWS V13.00,2013-08-15 09:25:00,
2013-08-15 03:30:00,52.0,29.6,30.02,North,0,0.0,0.0,42,0.00,,SKC,0.00,VWS V13.00,2013-08-15 09:30:00,
2013-08-15 03:35:00,51.8,29.5,30.02,North,0,0.0,0.0,42,0.00,,SKC,0.00,VWS V13.00,2013-08-15 09:35:00,
2013-08-15 03:40:00,51.8,29.5,30.02,North,0,0.0,0.0,42,0.00,,SKC,0.00,VWS V13.00,2013-08-15 09:40:00,
2013-08-15 03:45:00,51.6,29.9,30.02,North,0,0.0,0.0,43,0.00,,SKC,0.00,VWS V13.00,2013-08-15 09:45:00,
2013-08-15 03:50:00,51.6,29.9,30.02,North,0,0.0,0.0,43,0.00,,SKC,0.00,VWS V13.00,2013-08-15 09:50:00,
2013-08-15 03:55:00,51.3,29.5,30.02,North,0,0.0,0.0,43,0.00,,SKC,0.00,VWS V13.00,2013-08-15 09:55:00,
2013-08-15 04:00:00,51.3,29.5,30.02,North,0,0.0,0.0,43,0.00,,SKC,0.00,VWS V13.00,2013-08-15 10:00:00,
2013-08-15 04:05:00,51.1,30.0,30.02,North,0,0.0,0.0,44,0.00,,SKC,0.00,VWS V13.00,2013-08-15 10:05:00,
2013-08-15 04:10:00,51.1,29.4,30.02,North,0,0.0,0.0,43,0.00,,SKC,0.00,VWS V13.00,2013-08-15 10:10:00,
2013-08-15 04:15:00,51.1,29.4,30.02,North,0,0.0,0.0,43,0.00,,SKC,0.00,VWS V13.00,2013-08-15 10:15:00,
2013-08-15 04:20:00,50.9,29.8,30.02,North,0,0.0,0.0,44,0.00,,SKC,0.00,VWS V13.00,2013-08-15 10:20:00,
2013-08-15 04:25:00,50.9,29.8,30.02,North,0,0.0,0.0,44,0.00,,SKC,0.00,VWS V13.00,2013-08-15 10:25:00,
2013-08-15 04:30:00,50.9,29.2,30.02,North,0,0.0,0.0,43,0.00,,SKC,0.00,VWS V13.00,2013-08-15 10:30:00,
2013-08-15 04:35:00,50.7,29.1,30.02,North,0,0.0,0.0,43,0.00,,SKC,0.00,VWS V13.00,2013-08-15 10:35:00,
2013-08-15 04:40:00,50.7,29.1,30.02,North,0,0.0,0.0,43,0.00,,SKC,0.00,VWS V13.00,2013-08-15 10:40:00,
2013-08-15 04:45:00,50.5,29.5,30.02,North,0,0.0,0.0,44,0.00,,SKC,0.00,VWS V13.00,2013-08-15 10:45:00,
2013-08-15 04:50:00,50.5,28.9,30.02,North,0,0.0,0.0,43,0.00,,SKC,0.00,VWS V13.00,2013-08-15 10:50:00,
2013-08-15 04:55:00,50.5,28.9,30.02,North,0,0.0,0.0,43,0.00,,SKC,0.00,VWS V13.00,2013-08-15 10:55:00,
2013-08-15 05:00:00,50.5,28.9,30.02,North,0,0.0,0.0,43,0.00,,SKC,0.00,VWS V13.00,2013-08-15 11:00:00,
2013-08-15 05:05:00,50.5,28.9,30.02,North,0,0.0,0.0,43,0.00,,SKC,0.00,VWS V13.00,2013-08-15 11:05:00,
2013-08-15 05:10:00,50.5,28.9,30.02,North,0,0.0,0.0,43,0.00,,SKC,0.00,VWS V13.00,2013-08-15 11:10:00,
2013-08-15 05:15:00,50.4,29.3,30.02,North,0,0.0,0.0,44,0.00,,SKC,0.00,VWS V13.00,2013-08-15 11:15:00,
2013-08-15 05:20:00,50.2,29.1,30.02,North,0,0.0,0.0,44,0.00,,SKC,0.00,VWS V13.00,2013-08-15 11:20:00,
2013-08-15 05:25:00,50.0,29.0,30.02,North,0,0.0,0.0,44,0.00,,SKC,0.00,VWS V13.00,2013-08-15 11:25:00,
2013-08-15 05:31:00,50.0,29.0,30.02,North,0,0.0,0.0,44,0.00,,SKC,0.00,VWS V13.00,2013-08-15 11:31:00,
2013-08-15 05:36:00,50.0,29.5,30.02,North,0,0.0,0.0,45,0.00,,SKC,0.00,VWS V13.00,2013-08-15 11:36:00,
2013-08-15 05:41:00,49.8,29.4,30.02,North,0,0.0,0.0,45,0.00,,SKC,0.00,VWS V13.00,2013-08-15 11:41:00,
2013-08-15 05:46:00,49.8,29.4,30.02,North,0,0.0,0.0,45,0.00,,SKC,0.00,VWS V13.00,2013-08-15 11:46:00,
2013-08-15 05:51:00,49.6,29.2,30.02,North,0,0.0,0.0,45,0.00,,SKC,0.00,VWS V13.00,2013-08-15 11:51:00,
2013-08-15 05:56:00,49.6,29.2,30.02,North,0,0.0,0.0,45,0.00,,SKC,0.00,VWS V13.00,2013-08-15 11:56:00,
2013-08-15 06:01:00,49.5,29.0,30.02,North,0,0.0,0.0,45,0.00,,SKC,0.00,VWS V13.00,2013-08-15 12:01:00,
2013-08-15 06:06:00,49.5,29.6,30.02,North,0,0.0,0.0,46,0.00,,SKC,0.00,VWS V13.00,2013-08-15 12:06:00,
2013-08-15 06:11:00,49.3,29.4,30.02,North,0,0.0,0.0,46,0.00,,SKC,0.00,VWS V13.00,2013-08-15 12:11:00,
2013-08-15 06:16:00,49.1,29.8,30.02,North,0,0.0,0.0,47,0.00,,SKC,0.00,VWS V13.00,2013-08-15 12:16:00,
2013-08-15 06:21:00,49.1,29.8,30.02,North,0,0.0,0.0,47,0.00,,SKC,0.00,VWS V13.00,2013-08-15 12:21:00,
2013-08-15 06:26:00,48.9,29.6,30.02,North,0,0.0,0.0,47,0.00,,SKC,0.00,VWS V13.00,2013-08-15 12:26:00,
2013-08-15 06:31:00,49.1,29.8,30.02,North,0,0.0,0.0,47,0.00,,SKC,0.00,VWS V13.00,2013-08-15 12:31:00,
2013-08-15 06:36:00,48.9,29.6,30.02,North,0,0.0,0.0,47,0.00,,SKC,0.00,VWS V13.00,2013-08-15 12:36:00,
2013-08-15 06:41:00,48.9,29.6,30.02,North,0,0.0,0.0,47,0.00,,SKC,0.00,VWS V13.00,2013-08-15 12:41:00,
2013-08-15 06:46:00,48.9,29.6,30.05,North,0,0.0,0.0,47,0.00,,SKC,0.00,VWS V13.00,2013-08-15 12:46:00,
2013-08-15 06:51:00,48.7,29.4,30.05,North,0,0.0,0.0,47,0.00,,SKC,0.00,VWS V13.00,2013-08-15 12:51:00,
2013-08-15 06:56:00,48.9,29.6,30.05,North,0,0.0,0.0,47,0.00,,SKC,0.00,VWS V13.00,2013-08-15 12:56:00,
2013-08-15 07:01:00,49.3,29.9,30.05,North,0,0.0,0.0,47,0.00,,SKC,0.00,VWS V13.00,2013-08-15 13:01:00,
2013-08-15 07:06:00,49.6,30.2,30.05,North,0,0.0,0.0,47,0.00,,SKC,0.00,VWS V13.00,2013-08-15 13:06:00,
2013-08-15 07:11:00,50.0,30.6,30.05,North,0,0.0,0.0,47,0.00,,SKC,0.00,VWS V13.00,2013-08-15 13:11:00,
2013-08-15 07:16:00,50.2,30.8,30.05,North,0,0.0,0.0,47,0.00,,SKC,0.00,VWS V13.00,2013-08-15 13:16:00,
2013-08-15 07:21:00,50.4,31.4,30.05,North,0,0.0,0.0,48,0.00,,SKC,0.00,VWS V13.00,2013-08-15 13:21:00,
2013-08-15 07:26:00,50.5,31.6,30.05,North,0,0.0,0.0,48,0.00,,SKC,0.00,VWS V13.00,2013-08-15 13:26:00,
2013-08-15 07:31:00,50.9,32.4,30.05,North,0,0.0,0.0,49,0.00,,SKC,0.00,VWS V13.00,2013-08-15 13:31:00,
2013-08-15 07:36:00,51.4,32.9,30.05,North,0,0.0,0.0,49,0.00,,SKC,0.00,VWS V13.00,2013-08-15 13:36:00,
2013-08-15 07:41:00,51.8,33.3,30.05,North,0,0.0,0.0,49,0.00,,SKC,0.00,VWS V13.00,2013-08-15 13:41:00,
2013-08-15 07:46:00,52.3,33.8,30.05,North,0,0.0,0.0,49,0.00,,SKC,0.00,VWS V13.00,2013-08-15 13:46:00,
2013-08-15 07:47:00,52.5,33.9,30.05,North,0,0.0,0.0,49,0.00,,SKC,0.00,VWS V13.00,2013-08-15 13:47:00,
2013-08-15 07:52:00,53.1,34.9,30.05,North,0,0.0,0.0,50,0.00,,SKC,0.00,VWS V13.00,2013-08-15 13:52:00,
2013-08-15 07:57:00,53.8,35.6,30.05,North,0,0.0,0.0,50,0.00,,SKC,0.00,VWS V13.00,2013-08-15 13:57:00,
2013-08-15 08:02:00,54.9,36.1,30.05,North,0,0.0,0.0,49,0.00,,SKC,0.00,VWS V13.00,2013-08-15 14:02:00,
2013-08-15 08:07:00,56.1,36.2,30.05,North,0,0.0,0.0,47,0.00,,SKC,0.00,VWS V13.00,2013-08-15 14:07:00,
2013-08-15 08:12:00,57.4,36.8,30.05,North,0,0.0,0.0,46,0.00,,SKC,0.00,VWS V13.00,2013-08-15 14:12:00,
2013-08-15 08:17:00,58.5,38.3,30.05,North,0,0.0,0.0,47,0.00,,SKC,0.00,VWS V13.00,2013-08-15 14:17:00,
2013-08-15 08:22:00,59.4,38.0,30.05,North,0,0.0,0.0,45,0.00,,SKC,0.00,VWS V13.00,2013-08-15 14:22:00,
2013-08-15 08:27:00,60.1,36.3,30.05,North,0,0.0,0.0,41,0.00,,SKC,0.00,VWS V13.00,2013-08-15 14:27:00,
2013-08-15 08:32:00,60.8,37.0,30.05,North,0,0.0,0.0,41,0.00,,SKC,0.00,VWS V13.00,2013-08-15 14:32:00,
2013-08-15 08:37:00,61.7,35.2,30.05,North,0,0.0,0.0,37,0.00,,SKC,0.00,VWS V13.00,2013-08-15 14:37:00,
2013-08-15 08:42:00,62.2,35.7,30.05,North,0,0.0,0.0,37,0.00,,SKC,0.00,VWS V13.00,2013-08-15 14:42:00,
2013-08-15 08:47:00,62.8,35.5,30.05,North,0,0.0,0.0,36,0.00,,SKC,0.00,VWS V13.00,2013-08-15 14:47:00,
2013-08-15 08:52:00,63.0,37.0,30.05,North,0,0.0,0.0,38,0.00,,SKC,0.00,VWS V13.00,2013-08-15 14:52:00,
2013-08-15 08:57:00,63.5,35.4,30.05,North,0,0.0,0.0,35,0.00,,SKC,0.00,VWS V13.00,2013-08-15 14:57:00,
2013-08-15 09:03:00,63.9,35.7,30.05,North,0,0.0,0.0,35,0.00,,SKC,0.00,VWS V13.00,2013-08-15 15:03:00,
2013-08-15 09:08:00,64.0,35.9,30.05,North,0,0.0,0.0,35,0.00,,SKC,0.00,VWS V13.00,2013-08-15 15:08:00,
2013-08-15 09:13:00,64.2,36.7,30.05,North,0,0.0,0.0,36,0.00,,SKC,0.00,VWS V13.00,2013-08-15 15:13:00,
2013-08-15 09:18:00,64.4,36.2,30.05,North,0,0.0,0.0,35,0.00,,SKC,0.00,VWS V13.00,2013-08-15 15:18:00,
2013-08-15 09:23:00,64.8,37.2,30.05,North,0,0.0,0.0,36,0.00,,SKC,0.00,VWS V13.00,2013-08-15 15:23:00,
2013-08-15 09:28:00,65.1,38.2,30.05,North,0,0.0,0.0,37,0.00,,SKC,0.00,VWS V13.00,2013-08-15 15:28:00,
2013-08-15 09:33:00,65.5,38.5,30.05,North,0,0.0,0.0,37,0.00,,SKC,0.00,VWS V13.00,2013-08-15 15:33:00,
2013-08-15 09:38:00,66.0,38.3,30.05,North,0,0.0,0.0,36,0.00,,SKC,0.00,VWS V13.00,2013-08-15 15:38:00,
2013-08-15 09:43:00,66.6,38.1,30.05,North,0,0.0,0.0,35,0.00,,SKC,0.00,VWS V13.00,2013-08-15 15:43:00,
2013-08-15 09:48:00,67.1,38.6,30.05,North,0,0.0,0.0,35,0.00,,SKC,0.00,VWS V13.00,2013-08-15 15:48:00,
2013-08-15 09:53:00,67.6,38.3,30.05,North,0,0.0,0.0,34,0.00,,SKC,0.00,VWS V13.00,2013-08-15 15:53:00,
2013-08-15 09:58:00,68.2,38.8,30.05,North,0,0.0,0.0,34,0.00,,SKC,0.00,VWS V13.00,2013-08-15 15:58:00,
2013-08-15 10:03:00,68.9,38.6,30.05,North,0,0.0,0.0,33,0.00,,SKC,0.00,VWS V13.00,2013-08-15 16:03:00,
2013-08-15 10:08:00,69.4,39.1,30.05,North,0,0.0,0.0,33,0.00,,SKC,0.00,VWS V13.00,2013-08-15 16:08:00,
2013-08-15 10:13:00,69.8,38.6,30.05,North,0,0.0,0.0,32,0.00,,SKC,0.00,VWS V13.00,2013-08-15 16:13:00,
2013-08-15 10:18:00,70.7,37.8,30.05,North,0,0.0,0.0,30,0.00,,SKC,0.00,VWS V13.00,2013-08-15 16:18:00,
2013-08-15 10:23:00,71.2,39.9,30.05,North,0,0.0,0.0,32,0.00,,SKC,0.00,VWS V13.00,2013-08-15 16:23:00,
2013-08-15 10:28:00,71.8,38.7,30.05,North,0,0.0,0.0,30,0.00,,SKC,0.00,VWS V13.00,2013-08-15 16:28:00,
2013-08-15 10:33:00,72.1,37.3,30.05,North,0,0.0,0.0,28,0.00,,SKC,0.00,VWS V13.00,2013-08-15 16:33:00,
2013-08-15 10:38:00,72.9,40.5,30.05,North,0,0.0,0.0,31,0.00,,SKC,0.00,VWS V13.00,2013-08-15 16:38:00,
2013-08-15 10:43:00,72.9,37.0,30.05,North,0,0.0,0.0,27,0.00,,SKC,0.00,VWS V13.00,2013-08-15 16:43:00,
2013-08-15 10:48:00,73.4,37.4,30.05,North,0,0.0,0.0,27,0.00,,SKC,0.00,VWS V13.00,2013-08-15 16:48:00,
2013-08-15 10:54:00,73.8,36.8,30.05,North,0,0.0,0.0,26,0.00,,SKC,0.00,VWS V13.00,2013-08-15 16:54:00,
2013-08-15 10:59:00,74.1,37.1,30.05,North,0,0.0,0.0,26,0.00,,SKC,0.00,VWS V13.00,2013-08-15 16:59:00,
2013-08-15 11:04:00,74.3,36.2,30.05,North,0,0.0,0.0,25,0.00,,SKC,0.00,VWS V13.00,2013-08-15 17:04:00,
2013-08-15 11:09:00,74.5,36.4,30.05,North,0,0.0,0.0,25,0.00,,SKC,0.00,VWS V13.00,2013-08-15 17:09:00,
2013-08-15 11:14:00,74.5,34.3,30.05,North,0,0.0,0.0,23,0.00,,SKC,0.00,VWS V13.00,2013-08-15 17:14:00,
2013-08-15 11:19:00,74.7,34.4,30.05,North,0,0.0,0.0,23,0.00,,SKC,0.00,VWS V13.00,2013-08-15 17:19:00,
2013-08-15 11:24:00,74.8,33.5,30.05,North,0,0.0,0.0,22,0.00,,SKC,0.00,VWS V13.00,2013-08-15 17:24:00,
2013-08-15 11:29:00,75.4,33.9,30.05,North,0,0.0,0.0,22,0.00,,SKC,0.00,VWS V13.00,2013-08-15 17:29:00,
2013-08-15 11:34:00,75.7,34.2,30.05,North,0,0.0,0.0,22,0.00,,SKC,0.00,VWS V13.00,2013-08-15 17:34:00,
2013-08-15 11:39:00,76.1,33.4,30.05,North,0,0.0,0.0,21,0.00,,SKC,0.00,VWS V13.00,2013-08-15 17:39:00,
2013-08-15 11:44:00,76.8,34.0,30.05,North,0,0.0,0.0,21,0.00,,SKC,0.00,VWS V13.00,2013-08-15 17:44:00,
2013-08-15 11:49:00,77.0,34.1,30.05,North,0,0.0,0.0,21,0.00,,SKC,0.00,VWS V13.00,2013-08-15 17:49:00,
2013-08-15 11:54:00,77.2,34.3,30.05,North,0,0.0,0.0,21,0.00,,SKC,0.00,VWS V13.00,2013-08-15 17:54:00,
2013-08-15 11:59:00,77.2,34.3,30.05,North,0,0.0,0.0,21,0.00,,SKC,0.00,VWS V13.00,2013-08-15 17:59:00,
2013-08-15 12:04:00,77.2,33.0,30.05,North,0,0.0,0.0,20,0.00,,SKC,0.00,VWS V13.00,2013-08-15 18:04:00,
2013-08-15 12:09:00,77.4,34.4,30.05,North,0,0.0,0.0,21,0.00,,SKC,0.00,VWS V13.00,2013-08-15 18:09:00,
2013-08-15 12:14:00,77.5,34.6,30.05,North,0,0.0,0.0,21,0.00,,SKC,0.00,VWS V13.00,2013-08-15 18:14:00,
2013-08-15 12:19:00,77.7,34.7,30.05,North,0,0.0,0.0,21,0.00,,SKC,0.00,VWS V13.00,2013-08-15 18:19:00,
2013-08-15 12:24:00,78.1,35.0,30.05,North,0,0.0,0.0,21,0.00,,SKC,0.00,VWS V13.00,2013-08-15 18:24:00,
2013-08-15 12:29:00,78.1,35.0,30.05,North,0,0.0,0.0,21,0.00,,SKC,0.00,VWS V13.00,2013-08-15 18:29:00,
2013-08-15 12:35:00,78.4,35.3,30.05,North,0,0.0,0.0,21,0.00,,SKC,0.00,VWS V13.00,2013-08-15 18:35:00,
2013-08-15 12:40:00,78.6,34.2,30.05,North,0,0.0,0.0,20,0.00,,SKC,0.00,VWS V13.00,2013-08-15 18:40:00,
2013-08-15 12:45:00,79.0,34.5,30.05,North,0,0.0,0.0,20,0.00,,SKC,0.00,VWS V13.00,2013-08-15 18:45:00,
2013-08-15 12:50:00,79.5,35.0,30.05,North,0,0.0,0.0,20,0.00,,SKC,0.00,VWS V13.00,2013-08-15 18:50:00,
2013-08-15 12:55:00,80.2,35.6,30.05,North,0,0.0,0.0,20,0.00,,SKC,0.00,VWS V13.00,2013-08-15 18:55:00,
2013-08-15 13:00:00,81.0,36.2,30.05,North,0,0.0,0.0,20,0.00,,SKC,0.00,VWS V13.00,2013-08-15 19:00:00,
2013-08-15 13:05:00,81.7,36.8,30.05,North,0,0.0,0.0,20,0.00,,SKC,0.00,VWS V13.00,2013-08-15 19:05:00,
2013-08-15 13:10:00,82.4,36.0,30.05,North,0,0.0,0.0,19,0.00,,SKC,0.00,VWS V13.00,2013-08-15 19:10:00,
2013-08-15 13:15:00,83.1,36.6,30.05,North,0,0.0,0.0,19,0.00,,SKC,0.00,VWS V13.00,2013-08-15 19:15:00,
2013-08-15 13:20:00,83.5,32.6,30.05,North,0,0.0,0.0,16,0.00,,SKC,0.00,VWS V13.00,2013-08-15 19:20:00,
2013-08-15 13:25:00,84.2,37.5,30.05,North,0,0.0,0.0,19,0.00,,SKC,0.00,VWS V13.00,2013-08-15 19:25:00,
2013-08-15 13:31:00,84.7,38.0,30.05,North,0,0.0,0.0,19,0.00,,SKC,0.00,VWS V13.00,2013-08-15 19:31:00,
2013-08-15 13:36:00,85.1,36.9,30.05,North,0,0.0,0.0,18,0.00,,SKC,0.00,VWS V13.00,2013-08-15 19:36:00,
2013-08-15 13:41:00,85.6,37.3,30.05,North,0,0.0,0.0,18,0.00,,SKC,0.00,VWS V13.00,2013-08-15 19:41:00,
2013-08-15 13:46:00,86.0,34.6,30.02,North,0,0.0,0.0,16,0.00,,SKC,0.00,VWS V13.00,2013-08-15 19:46:00,
2013-08-15 13:51:00,86.2,37.8,30.02,North,0,0.0,0.0,18,0.00,,SKC,0.00,VWS V13.00,2013-08-15 19:51:00,
2013-08-15 13:56:00,86.4,37.9,30.02,North,0,0.0,0.0,18,0.00,,SKC,0.00,VWS V13.00,2013-08-15 19:56:00,
2013-08-15 14:01:00,86.9,38.3,30.02,North,0,0.0,0.0,18,0.00,,SKC,0.00,VWS V13.00,2013-08-15 20:01:00,
2013-08-15 14:06:00,86.9,38.3,30.02,North,0,0.0,0.0,18,0.00,,SKC,0.00,VWS V13.00,2013-08-15 20:06:00,
2013-08-15 14:11:00,87.3,38.6,30.02,North,0,0.0,0.0,18,0.00,,SKC,0.00,VWS V13.00,2013-08-15 20:11:00,
2013-08-15 14:17:00,87.8,39.1,30.02,North,0,0.0,0.0,18,0.00,,SKC,0.00,VWS V13.00,2013-08-15 20:17:00,
2013-08-15 14:22:00,88.0,34.6,30.02,North,0,0.0,0.0,15,0.00,,SKC,0.00,VWS V13.00,2013-08-15 20:22:00,
2013-08-15 14:27:00,88.2,39.4,30.02,North,0,0.0,0.0,18,0.00,,SKC,0.00,VWS V13.00,2013-08-15 20:27:00,
2013-08-15 14:32:00,88.2,39.4,30.02,North,0,0.0,0.0,18,0.00,,SKC,0.00,VWS V13.00,2013-08-15 20:32:00,
2013-08-15 14:37:00,88.3,39.5,30.02,North,0,0.0,0.0,18,0.00,,SKC,0.00,VWS V13.00,2013-08-15 20:37:00,
2013-08-15 14:42:00,88.2,34.7,30.02,North,0,0.0,0.0,15,0.00,,SKC,0.00,VWS V13.00,2013-08-15 20:42:00,
2013-08-15 14:47:00,88.0,39.2,30.02,North,0,0.0,0.0,18,0.00,,SKC,0.00,VWS V13.00,2013-08-15 20:47:00,
2013-08-15 14:52:00,88.0,39.2,30.02,North,0,0.0,0.0,18,0.00,,SKC,0.00,VWS V13.00,2013-08-15 20:52:00,
2013-08-15 14:57:00,86.9,35.3,30.02,North,0,0.0,0.0,16,0.00,,SKC,0.00,VWS V13.00,2013-08-15 20:57:00,
2013-08-15 15:02:00,86.4,34.9,30.02,North,0,0.0,0.0,16,0.00,,SKC,0.00,VWS V13.00,2013-08-15 21:02:00,
2013-08-15 15:07:00,86.2,34.8,30.02,North,0,0.0,0.0,16,0.00,,SKC,0.00,VWS V13.00,2013-08-15 21:07:00,
2013-08-15 15:12:00,86.5,35.1,30.02,North,0,0.0,0.0,16,0.00,,SKC,0.00,VWS V13.00,2013-08-15 21:12:00,
2013-08-15 15:17:00,86.4,34.9,30.02,North,0,0.0,0.0,16,0.00,,SKC,0.00,VWS V13.00,2013-08-15 21:17:00,
2013-08-15 15:22:00,85.5,34.2,30.02,North,0,0.0,0.0,16,0.00,,SKC,0.00,VWS V13.00,2013-08-15 21:22:00,
2013-08-15 15:27:00,85.3,34.1,30.02,North,0,0.0,0.0,16,0.00,,SKC,0.00,VWS V13.00,2013-08-15 21:27:00,
2013-08-15 15:33:00,85.6,34.3,30.02,North,0,0.0,0.0,16,0.00,,SKC,0.00,VWS V13.00,2013-08-15 21:33:00,
2013-08-15 15:38:00,85.1,33.9,30.02,North,0,0.0,0.0,16,0.00,,SKC,0.00,VWS V13.00,2013-08-15 21:38:00,
2013-08-15 15:43:00,84.9,33.8,30.02,North,0,0.0,0.0,16,0.00,,SKC,0.00,VWS V13.00,2013-08-15 21:43:00,
2013-08-15 15:48:00,84.6,33.5,30.02,North,0,0.0,0.0,16,0.00,,SKC,0.00,VWS V13.00,2013-08-15 21:48:00,
2013-08-15 15:53:00,84.0,33.0,30.02,North,0,0.0,0.0,16,0.00,,SKC,0.00,VWS V13.00,2013-08-15 21:53:00,
2013-08-15 15:58:00,83.1,32.3,30.02,North,0,0.0,0.0,16,0.00,,SKC,0.00,VWS V13.00,2013-08-15 21:58:00,
2013-08-15 16:03:00,82.8,32.0,30.02,North,0,0.0,0.0,16,0.00,,SKC,0.00,VWS V13.00,2013-08-15 22:03:00,
2013-08-15 16:08:00,82.4,31.8,30.02,North,0,0.0,0.0,16,0.00,,SKC,0.00,VWS V13.00,2013-08-15 22:08:00,
2013-08-15 16:13:00,82.2,33.1,30.02,North,0,0.0,0.0,17,0.00,,SKC,0.00,VWS V13.00,2013-08-15 22:13:00,
2013-08-15 16:18:00,82.2,33.1,30.02,North,0,0.0,0.0,17,0.00,,SKC,0.00,VWS V13.00,2013-08-15 22:18:00,
2013-08-15 16:23:00,82.0,33.0,30.02,North,0,0.0,0.0,17,0.00,,SKC,0.00,VWS V13.00,2013-08-15 22:23:00,
2013-08-15 16:28:00,81.9,32.8,30.02,North,0,0.0,0.0,17,0.00,,SKC,0.00,VWS V13.00,2013-08-15 22:28:00,
2013-08-15 16:33:00,81.5,32.5,30.02,North,0,0.0,0.0,17,0.00,,SKC,0.00,VWS V13.00,2013-08-15 22:33:00,
2013-08-15 16:38:00,81.5,32.5,30.02,North,0,0.0,0.0,17,0.00,,SKC,0.00,VWS V13.00,2013-08-15 22:38:00,
2013-08-15 16:43:00,81.3,32.4,29.99,North,0,0.0,0.0,17,0.00,,SKC,0.00,VWS V13.00,2013-08-15 22:43:00,
2013-08-15 16:48:00,81.1,32.2,29.99,North,0,0.0,0.0,17,0.00,,SKC,0.00,VWS V13.00,2013-08-15 22:48:00,
2013-08-15 16:53:00,81.1,32.2,29.99,North,0,0.0,0.0,17,0.00,,SKC,0.00,VWS V13.00,2013-08-15 22:53:00,
2013-08-15 16:58:00,81.3,32.4,29.99,North,0,0.0,0.0,17,0.00,,SKC,0.00,VWS V13.00,2013-08-15 22:58:00,
2013-08-15 17:04:00,81.3,32.4,29.99,North,0,0.0,0.0,17,0.00,,SKC,0.00,VWS V13.00,2013-08-15 23:04:00,
2013-08-15 17:09:00,81.5,32.5,29.99,North,0,0.0,0.0,17,0.00,,SKC,0.00,VWS V13.00,2013-08-15 23:09:00,
2013-08-15 17:14:00,81.3,32.4,29.99,North,0,0.0,0.0,17,0.00,,SKC,0.00,VWS V13.00,2013-08-15 23:14:00,
2013-08-15 17:19:00,81.0,32.1,29.99,North,0,0.0,0.0,17,0.00,,SKC,0.00,VWS V13.00,2013-08-15 23:19:00,
2013-08-15 17:24:00,81.0,32.1,29.99,North,0,0.0,0.0,17,0.00,,SKC,0.00,VWS V13.00,2013-08-15 23:24:00,
2013-08-15 17:29:00,81.1,32.2,29.99,North,0,0.0,0.0,17,0.00,,SKC,0.00,VWS V13.00,2013-08-15 23:29:00,
2013-08-15 17:34:00,81.0,32.1,29.99,North,0,0.0,0.0,17,0.00,,SKC,0.00,VWS V13.00,2013-08-15 23:34:00,
2013-08-15 17:39:00,80.6,31.8,29.99,North,0,0.0,0.0,17,0.00,,SKC,0.00,VWS V13.00,2013-08-15 23:39:00,
2013-08-15 17:44:00,80.4,31.7,29.99,North,0,0.0,0.0,17,0.00,,SKC,0.00,VWS V13.00,2013-08-15 23:44:00,
2013-08-15 17:49:00,80.1,31.4,29.99,North,0,0.0,0.0,17,0.00,,SKC,0.00,VWS V13.00,2013-08-15 23:49:00,
2013-08-15 17:54:00,79.9,31.2,29.99,North,0,0.0,0.0,17,0.00,,SKC,0.00,VWS V13.00,2013-08-15 23:54:00,
2013-08-15 18:00:00,79.9,31.2,29.99,North,0,0.0,0.0,17,0.00,,SKC,0.00,VWS V13.00,2013-08-16 00:00:00,
2013-08-15 18:06:00,79.5,30.9,29.99,North,0,0.0,0.0,17,0.00,,SKC,0.00,VWS V13.00,2013-08-16 00:06:00,
2013-08-15 18:11:00,79.3,30.8,29.99,North,0,0.0,0.0,17,0.00,,SKC,0.00,VWS V13.00,2013-08-16 00:11:00,
2013-08-15 18:16:00,79.2,30.6,29.99,North,0,0.0,0.0,17,0.00,,SKC,0.00,VWS V13.00,2013-08-16 00:16:00,
2013-08-15 18:21:00,79.0,30.5,29.99,North,0,0.0,0.0,17,0.00,,SKC,0.00,VWS V13.00,2013-08-16 00:21:00,
2013-08-15 18:26:00,79.0,30.5,29.99,North,0,0.0,0.0,17,0.00,,SKC,0.00,VWS V13.00,2013-08-16 00:26:00,
2013-08-15 18:31:00,78.8,30.4,29.99,North,0,0.0,0.0,17,0.00,,SKC,0.00,VWS V13.00,2013-08-16 00:31:00,
2013-08-15 18:36:00,78.8,30.4,29.99,North,0,0.0,0.0,17,0.00,,SKC,0.00,VWS V13.00,2013-08-16 00:36:00,
2013-08-15 18:41:00,79.0,30.5,29.99,North,0,0.0,0.0,17,0.00,,SKC,0.00,VWS V13.00,2013-08-16 00:41:00,
2013-08-15 18:46:00,79.3,30.8,29.99,North,0,0.0,0.0,17,0.00,,SKC,0.00,VWS V13.00,2013-08-16 00:46:00,
2013-08-15 18:51:00,79.7,31.1,29.99,North,0,0.0,0.0,17,0.00,,SKC,0.00,VWS V13.00,2013-08-16 00:51:00,
2013-08-15 18:56:00,79.9,31.2,29.99,North,0,0.0,0.0,17,0.00,,SKC,0.00,VWS V13.00,2013-08-16 00:56:00,
2013-08-15 19:01:00,79.3,30.8,29.99,North,0,0.0,0.0,17,0.00,,SKC,0.00,VWS V13.00,2013-08-16 01:01:00,
2013-08-15 19:06:00,79.2,30.6,29.99,North,0,0.0,0.0,17,0.00,,SKC,0.00,VWS V13.00,2013-08-16 01:06:00,
2013-08-15 19:11:00,79.0,30.5,29.99,North,0,0.0,0.0,17,0.00,,SKC,0.00,VWS V13.00,2013-08-16 01:11:00,
2013-08-15 19:17:00,78.8,30.4,29.99,North,0,0.0,0.0,17,0.00,,SKC,0.00,VWS V13.00,2013-08-16 01:17:00,
2013-08-15 19:22:00,78.1,31.2,29.99,North,0,0.0,0.0,18,0.00,,SKC,0.00,VWS V13.00,2013-08-16 01:22:00,
2013-08-15 19:27:00,77.4,30.6,29.99,North,0,0.0,0.0,18,0.00,,SKC,0.00,VWS V13.00,2013-08-16 01:27:00,
2013-08-15 19:32:00,76.3,29.7,29.99,North,0,0.0,0.0,18,0.00,,SKC,0.00,VWS V13.00,2013-08-16 01:32:00,
2013-08-15 19:37:00,75.7,31.9,29.99,North,0,0.0,0.0,20,0.00,,SKC,0.00,VWS V13.00,2013-08-16 01:37:00,
2013-08-15 19:42:00,74.7,32.2,29.99,North,0,0.0,0.0,21,0.00,,SKC,0.00,VWS V13.00,2013-08-16 01:42:00,
2013-08-15 19:47:00,73.6,31.3,29.99,North,0,0.0,0.0,21,0.00,,SKC,0.00,VWS V13.00,2013-08-16 01:47:00,
2013-08-15 19:52:00,72.3,31.4,29.99,North,0,0.0,0.0,22,0.00,,SKC,0.00,VWS V13.00,2013-08-16 01:52:00,
2013-08-15 19:57:00,71.2,30.5,29.99,North,0,0.0,0.0,22,0.00,,SKC,0.00,VWS V13.00,2013-08-16 01:57:00,
2013-08-15 20:02:00,70.5,29.9,29.99,North,0,0.0,0.0,22,0.00,,SKC,0.00,VWS V13.00,2013-08-16 02:02:00,
2013-08-15 20:07:00,69.8,29.3,29.99,North,0,0.0,0.0,22,0.00,,SKC,0.00,VWS V13.00,2013-08-16 02:07:00,
2013-08-15 20:12:00,69.3,29.9,29.99,North,0,0.0,0.0,23,0.00,,SKC,0.00,VWS V13.00,2013-08-16 02:12:00,
2013-08-15 20:17:00,68.7,29.5,29.99,North,0,0.0,0.0,23,0.00,,SKC,0.00,VWS V13.00,2013-08-16 02:17:00,
2013-08-15 20:22:00,68.4,29.1,29.99,North,0,0.0,0.0,23,0.00,,SKC,0.00,VWS V13.00,2013-08-16 02:22:00,
2013-08-15 20:27:00,67.8,28.7,30.02,North,0,0.0,0.0,23,0.00,,SKC,0.00,VWS V13.00,2013-08-16 02:27:00,
2013-08-15 20:32:00,67.3,28.2,30.02,North,0,0.0,0.0,23,0.00,,SKC,0.00,VWS V13.00,2013-08-16 02:32:00,
2013-08-15 20:38:00,67.1,28.1,30.02,North,0,0.0,0.0,23,0.00,,SKC,0.00,VWS V13.00,2013-08-16 02:38:00,
2013-08-15 20:43:00,66.9,27.9,30.02,North,0,0.0,0.0,23,0.00,,SKC,0.00,VWS V13.00,2013-08-16 02:43:00,
2013-08-15 20:48:00,66.6,27.6,30.02,North,0,0.0,0.0,23,0.00,,SKC,0.00,VWS V13.00,2013-08-16 02:48:00,
2013-08-15 20:53:00,66.2,28.4,30.02,North,0,0.0,0.0,24,0.00,,SKC,0.00,VWS V13.00,2013-08-16 02:53:00,
2013-08-15 20:58:00,65.7,27.9,30.02,North,0,0.0,0.0,24,0.00,,SKC,0.00,VWS V13.00,2013-08-16 02:58:00,
2013-08-15 21:03:00,65.3,27.6,30.02,North,0,0.0,0.0,24,0.00,,SKC,0.00,VWS V13.00,2013-08-16 03:03:00,
2013-08-15 21:08:00,64.8,27.2,30.02,North,0,0.0,0.0,24,0.00,,SKC,0.00,VWS V13.00,2013-08-16 03:08:00,
2013-08-15 21:13:00,64.2,27.7,30.02,North,0,0.0,0.0,25,0.00,,SKC,0.00,VWS V13.00,2013-08-16 03:13:00,
2013-08-15 21:18:00,63.9,27.4,30.02,North,0,0.0,0.0,25,0.00,,SKC,0.00,VWS V13.00,2013-08-16 03:18:00,
2013-08-15 21:23:00,63.5,27.1,30.02,North,0,0.0,0.0,25,0.00,,SKC,0.00,VWS V13.00,2013-08-16 03:23:00,
2013-08-15 21:28:00,63.5,27.1,30.02,North,0,0.0,0.0,25,0.00,,SKC,0.00,VWS V13.00,2013-08-16 03:28:00,
2013-08-15 21:33:00,63.7,27.2,30.02,North,0,0.0,0.0,25,0.00,,SKC,0.00,VWS V13.00,2013-08-16 03:33:00,
2013-08-15 21:38:00,63.7,27.2,30.02,North,0,0.0,0.0,25,0.00,,SKC,0.00,VWS V13.00,2013-08-16 03:38:00,
2013-08-15 21:43:00,63.7,27.2,30.02,North,0,0.0,0.0,25,0.00,,SKC,0.00,VWS V13.00,2013-08-16 03:43:00,
2013-08-15 21:48:00,63.3,26.9,30.02,North,0,0.0,0.0,25,0.00,,SKC,0.00,VWS V13.00,2013-08-16 03:48:00,
2013-08-15 21:53:00,63.1,26.8,30.02,North,0,0.0,0.0,25,0.00,,SKC,0.00,VWS V13.00,2013-08-16 03:53:00,
2013-08-15 21:58:00,62.6,26.3,30.02,North,0,0.0,0.0,25,0.00,,SKC,0.00,VWS V13.00,2013-08-16 03:58:00,
2013-08-15 22:01:00,62.2,27.0,30.02,North,0,0.0,0.0,26,0.00,,SKC,0.00,VWS V13.00,2013-08-16 04:01:00,
2013-08-15 22:06:00,61.9,26.6,30.02,North,0,0.0,0.0,26,0.00,,SKC,0.00,VWS V13.00,2013-08-16 04:06:00,
2013-08-15 22:11:00,61.3,26.2,30.02,North,0,0.0,0.0,26,0.00,,SKC,0.00,VWS V13.00,2013-08-16 04:11:00,
2013-08-15 22:16:00,61.0,25.9,30.02,North,0,0.0,0.0,26,0.00,,SKC,0.00,VWS V13.00,2013-08-16 04:16:00,
2013-08-15 22:21:00,60.6,25.6,30.02,North,0,0.0,0.0,26,0.00,,SKC,0.00,VWS V13.00,2013-08-16 04:21:00,
2013-08-15 22:26:00,60.3,25.3,30.02,North,0,0.0,0.0,26,0.00,,SKC,0.00,VWS V13.00,2013-08-16 04:26:00,
2013-08-15 22:31:00,59.9,25.0,30.02,North,0,0.0,0.0,26,0.00,,SKC,0.00,VWS V13.00,2013-08-16 04:31:00,
2013-08-15 22:36:00,59.5,24.6,30.02,North,0,0.0,0.0,26,0.00,,SKC,0.00,VWS V13.00,2013-08-16 04:36:00,
2013-08-15 22:41:00,59.4,24.5,30.02,North,0,0.0,0.0,26,0.00,,SKC,0.00,VWS V13.00,2013-08-16 04:41:00,
2013-08-15 22:46:00,59.2,24.3,30.05,North,0,0.0,0.0,26,0.00,,SKC,0.00,VWS V13.00,2013-08-16 04:46:00,
2013-08-15 22:51:00,59.0,24.2,30.05,North,0,0.0,0.0,26,0.00,,SKC,0.00,VWS V13.00,2013-08-16 04:51:00,
2013-08-15 22:56:00,58.6,24.8,30.05,North,0,0.0,0.0,27,0.00,,SKC,0.00,VWS V13.00,2013-08-16 04:56:00,
2013-08-15 23:01:00,58.5,24.6,30.05,North,0,0.0,0.0,27,0.00,,SKC,0.00,VWS V13.00,2013-08-16 05:01:00,
2013-08-15 23:06:00,58.1,24.3,30.05,North,0,0.0,0.0,27,0.00,,SKC,0.00,VWS V13.00,2013-08-16 05:06:00,
2013-08-15 23:11:00,57.9,24.2,30.05,North,0,0.0,0.0,27,0.00,,SKC,0.00,VWS V13.00,2013-08-16 05:11:00,
2013-08-15 23:19:00,57.7,24.0,30.05,North,0,0.0,0.0,27,0.00,,SKC,0.00,VWS V13.00,2013-08-16 05:19:00,
2013-08-15 23:24:00,57.6,23.9,30.05,North,0,0.0,0.0,27,0.00,,SKC,0.00,VWS V13.00,2013-08-16 05:24:00,
2013-08-15 23:29:00,57.4,23.7,30.05,North,0,0.0,0.0,27,0.00,,SKC,0.00,VWS V13.00,2013-08-16 05:29:00,
2013-08-15 23:34:00,57.2,23.5,30.05,North,0,0.0,0.0,27,0.00,,SKC,0.00,VWS V13.00,2013-08-16 05:34:00,
2013-08-15 23:39:00,57.0,24.3,30.05,North,0,0.0,0.0,28,0.00,,SKC,0.00,VWS V13.00,2013-08-16 05:39:00,
2013-08-15 23:44:00,57.0,23.4,30.05,North,0,0.0,0.0,27,0.00,,SKC,0.00,VWS V13.00,2013-08-16 05:44:00,
2013-08-15 23:49:00,56.8,23.2,30.05,North,0,0.0,0.0,27,0.00,,SKC,0.00,VWS V13.00,2013-08-16 05:49:00,
2013-08-15 23:54:00,56.8,23.2,30.05,North,0,0.0,0.0,27,0.00,,SKC,0.00,VWS V13.00,2013-08-16 05:54:00,